When you browse on this site, cookies collect data to enhance your experience and personalize the content and advertising you see.
Visit our Privacy Policy to learn more. By continuing to use the site, you agree to this use of cookies and data.
  • In Hungary
  • List of Countries
  • For 7 days
  • Water Temperature
  • Weather Map
  • News
  • Weather Widgets
  • user-avatar
    Login

    Hourly Weather Ermesinde

    Today, 18 November, Monday

    Time Temperature Precipitation Wind Pressure Humidity
    00:00 +8°C° 0 mm 3 mps 753 mmHg 89%
    01:00 +7°C° 0 mm 3 mps 753 mmHg 90%
    02:00 +7°C° 0 mm 3 mps 753 mmHg 90%
    03:00 +7°C° 0 mm 3 mps 753 mmHg 90%
    04:00 +7°C° 0 mm 3 mps 753 mmHg 89%
    05:00 +5°C° 0 mm 3 mps 754 mmHg 88%
    06:00 +7°C° 0 mm 2 mps 754 mmHg 86%
    07:00 +7°C° 0 mm 2 mps 754 mmHg 84%
    08:00 +8°C° 0 mm 2 mps 755 mmHg 81%
    09:00 +10°C° 0 mm 2 mps 755 mmHg 75%
    10:00 +12°C° 0 mm 2 mps 755 mmHg 68%
    11:00 +14°C° 0 mm 2 mps 755 mmHg 61%
    12:00 +14°C° 0 mm 2 mps 755 mmHg 59%
    13:00 +14°C° 0 mm 2 mps 754 mmHg 58%
    14:00 +14°C° 0 mm 3 mps 754 mmHg 56%
    15:00 +12°C° 0 mm 3 mps 754 mmHg 64%
    16:00 +12°C° 0 mm 2 mps 754 mmHg 72%
    17:00 +9°C° 0 mm 2 mps 754 mmHg 79%
    18:00 +9°C° 0 mm 2 mps 754 mmHg 81%
    19:00 +9°C° 0 mm 2 mps 755 mmHg 82%
    20:00 +9°C° 0 mm 1 mps 755 mmHg 84%
    21:00 +9°C° 0 mm 1 mps 755 mmHg 84%
    22:00 +9°C° 0 mm 1 mps 755 mmHg 83%
    23:00 +9°C° 0 mm 1 mps 755 mmHg 83%

    Tomorrow, 19 November, Tuesday

    Time Temperature Precipitation Wind Pressure Humidity
    00:00 +9°C° 0 mm 1 mps 754 mmHg 83%
    01:00 +9°C° 0 mm 1 mps 754 mmHg 83%
    02:00 +9°C° 0 mm 1 mps 754 mmHg 83%
    03:00 +8°C° 0.1 mm 2 mps 753 mmHg 82%
    04:00 +8°C° 0.1 mm 2 mps 753 mmHg 82%
    05:00 +8°C° 0.1 mm 2 mps 753 mmHg 81%
    06:00 +9°C° 0.3 mm 3 mps 753 mmHg 83%
    07:00 +9°C° 0.3 mm 3 mps 753 mmHg 84%
    08:00 +9°C° 0.3 mm 3 mps 753 mmHg 86%
    09:00 +9°C° 0.1 mm 3 mps 753 mmHg 81%
    10:00 +10°C° 0.1 mm 3 mps 753 mmHg 77%
    11:00 +11°C° 0.1 mm 4 mps 752 mmHg 73%
    12:00 +11°C° 0.2 mm 4 mps 752 mmHg 74%
    13:00 +10°C° 0.2 mm 4 mps 751 mmHg 76%
    14:00 +10°C° 0.2 mm 4 mps 751 mmHg 78%
    15:00 +10°C° 0.6 mm 4 mps 751 mmHg 80%
    16:00 +10°C° 0.6 mm 3 mps 750 mmHg 83%
    17:00 +9°C° 0.6 mm 3 mps 750 mmHg 86%
    18:00 +9°C° 0.5 mm 3 mps 750 mmHg 87%
    19:00 +9°C° 0.5 mm 3 mps 750 mmHg 87%
    20:00 +9°C° 0.5 mm 3 mps 750 mmHg 88%
    21:00 +10°C° 0.1 mm 3 mps 750 mmHg 89%
    22:00 +10°C° 0.1 mm 3 mps 750 mmHg 89%
    23:00 +10°C° 0.1 mm 3 mps 750 mmHg 90%

    Day after tomorrow, 20 November, Wednesday

    Time Temperature Precipitation Wind Pressure Humidity
    00:00 +10°C° 0.1 mm 2 mps 749 mmHg 89%
    01:00 +10°C° 0.1 mm 2 mps 749 mmHg 89%
    02:00 +10°C° 0.1 mm 2 mps 749 mmHg 89%
    03:00 +9°C° 0 mm 2 mps 748 mmHg 89%
    04:00 +9°C° 0 mm 2 mps 748 mmHg 89%
    05:00 +9°C° 0 mm 3 mps 747 mmHg 89%
    06:00 +9°C° 0.1 mm 3 mps 748 mmHg 88%
    07:00 +9°C° 0.1 mm 3 mps 748 mmHg 87%
    08:00 +10°C° 0.1 mm 4 mps 748 mmHg 85%
    09:00 +10°C° 1.2 mm 4 mps 748 mmHg 86%
    10:00 +10°C° 1.2 mm 4 mps 747 mmHg 86%
    11:00 +9°C° 1.2 mm 5 mps 747 mmHg 86%
    12:00 +10°C° 0.4 mm 4 mps 747 mmHg 86%
    13:00 +11°C° 0.4 mm 4 mps 747 mmHg 85%
    14:00 +11°C° 0.4 mm 4 mps 746 mmHg 85%
    15:00 +11°C° 0.3 mm 3 mps 746 mmHg 86%
    16:00 +10°C° 0.3 mm 2 mps 746 mmHg 87%
    17:00 +10°C° 0.3 mm 2 mps 747 mmHg 89%
    18:00 +10°C° 0.5 mm 2 mps 747 mmHg 88%
    19:00 +10°C° 0.5 mm 2 mps 747 mmHg 88%
    20:00 +10°C° 0.5 mm 3 mps 747 mmHg 88%
    21:00 +9°C° 0.4 mm 3 mps 747 mmHg 89%
    22:00 +9°C° 0.4 mm 3 mps 747 mmHg 90%
    23:00 +9°C° 0.4 mm 2 mps 747 mmHg 91%

    21 November, Thursday

    Time Temperature Precipitation Wind Pressure Humidity
    00:00 +9°C° 0.3 mm 3 mps 747 mmHg 91%
    01:00 +9°C° 0.3 mm 3 mps 747 mmHg 92%
    02:00 +9°C° 0.3 mm 3 mps 747 mmHg 92%
    03:00 +9°C° 0.4 mm 3 mps 747 mmHg 92%
    04:00 +9°C° 0.4 mm 3 mps 747 mmHg 93%
    05:00 +9°C° 0.4 mm 3 mps 747 mmHg 93%
    06:00 +9°C° 0.6 mm 3 mps 747 mmHg 92%
    07:00 +10°C° 0.6 mm 3 mps 747 mmHg 91%
    08:00 +10°C° 0.6 mm 3 mps 748 mmHg 90%
    09:00 +11°C° 0.6 mm 3 mps 748 mmHg 89%
    10:00 +11°C° 0.6 mm 3 mps 748 mmHg 87%
    11:00 +12°C° 0.6 mm 3 mps 748 mmHg 86%
    12:00 +12°C° 0.2 mm 3 mps 747 mmHg 82%
    13:00 +13°C° 0.2 mm 4 mps 746 mmHg 77%
    14:00 +14°C° 0.2 mm 4 mps 746 mmHg 73%
    15:00 +13°C° 0.2 mm 4 mps 746 mmHg 78%
    16:00 +12°C° 0.2 mm 4 mps 745 mmHg 83%
    17:00 +11°C° 0.2 mm 4 mps 745 mmHg 87%
    18:00 +10°C° 1.9 mm 5 mps 745 mmHg 89%
    19:00 +10°C° 1.9 mm 6 mps 744 mmHg 91%
    20:00 +10°C° 1.9 mm 7 mps 743 mmHg 93%
    21:00 +11°C° 3.2 mm 8 mps 742 mmHg 93%
    22:00 +11°C° 3.2 mm 9 mps 742 mmHg 94%
    23:00 +12°C° 3.2 mm 10 mps 741 mmHg 94%

    22 November, Friday

    Time Temperature Precipitation Wind Pressure Humidity
    00:00 +12°C° 4.2 mm 10 mps 740 mmHg 93%
    01:00 +13°C° 4.2 mm 9 mps 740 mmHg 92%
    02:00 +15°C° 4.2 mm 9 mps 740 mmHg 90%
    03:00 +13°C° 0.2 mm 8 mps 740 mmHg 89%
    04:00 +12°C° 0.2 mm 7 mps 741 mmHg 88%
    05:00 +13°C° 0.2 mm 5 mps 742 mmHg 87%
    06:00 +13°C° 0 mm 4 mps 742 mmHg 88%
    07:00 +13°C° 0 mm 3 mps 743 mmHg 88%
    08:00 +14°C° 0 mm 2 mps 743 mmHg 88%
    09:00 +15°C° 0.1 mm 2 mps 744 mmHg 85%
    10:00 +15°C° 0.1 mm 2 mps 744 mmHg 82%
    11:00 +16°C° 0.1 mm 2 mps 744 mmHg 79%
    12:00 +16°C° 0 mm 2 mps 743 mmHg 80%
    13:00 +16°C° 0 mm 3 mps 743 mmHg 80%
    14:00 +16°C° 0 mm 3 mps 743 mmHg 81%
    15:00 +16°C° 0.3 mm 3 mps 743 mmHg 85%
    16:00 +14°C° 0.3 mm 4 mps 743 mmHg 88%
    17:00 +14°C° 0.3 mm 4 mps 744 mmHg 92%
    18:00 +13°C° 0.1 mm 4 mps 744 mmHg 91%
    19:00 +13°C° 0.1 mm 4 mps 745 mmHg 91%
    20:00 +13°C° 0.1 mm 3 mps 745 mmHg 90%
    21:00 +13°C° 0.2 mm 4 mps 745 mmHg 90%
    22:00 +13°C° 0.2 mm 4 mps 746 mmHg 89%
    23:00 +13°C° 0.2 mm 4 mps 746 mmHg 89%

    23 November, Saturday

    Time Temperature Precipitation Wind Pressure Humidity
    00:00 +13°C° 0.1 mm 5 mps 746 mmHg 87%
    01:00 +12°C° 0.1 mm 5 mps 747 mmHg 86%
    02:00 +12°C° 0.1 mm 5 mps 747 mmHg 85%
    03:00 +12°C° 0.1 mm 4 mps 748 mmHg 84%
    04:00 +12°C° 0.1 mm 4 mps 748 mmHg 84%
    05:00 +12°C° 0.1 mm 4 mps 749 mmHg 83%
    06:00 +12°C° 0 mm 3 mps 749 mmHg 82%
    07:00 +12°C° 0 mm 3 mps 750 mmHg 81%
    08:00 +12°C° 0 mm 3 mps 751 mmHg 80%
    09:00 +14°C° 0 mm 2 mps 751 mmHg 75%
    10:00 +14°C° 0 mm 2 mps 751 mmHg 70%
    11:00 +15°C° 0 mm 2 mps 752 mmHg 65%
    12:00 +15°C° 0 mm 2 mps 751 mmHg 66%
    13:00 +15°C° 0 mm 1 mps 751 mmHg 66%
    14:00 +15°C° 0 mm 1 mps 751 mmHg 67%
    15:00 +15°C° 0 mm 1 mps 752 mmHg 70%
    16:00 +14°C° 0 mm 2 mps 752 mmHg 74%
    17:00 +14°C° 0 mm 2 mps 752 mmHg 77%
    18:00 +14°C° 0 mm 2 mps 753 mmHg 78%
    19:00 +14°C° 0 mm 2 mps 753 mmHg 80%
    20:00 +13°C° 0 mm 3 mps 753 mmHg 81%
    21:00 +13°C° 0 mm 3 mps 753 mmHg 82%
    22:00 +13°C° 0 mm 3 mps 753 mmHg 84%
    23:00 +13°C° 0 mm 4 mps 754 mmHg 86%
    Show more